Lid_Strength_Index
-1 -1 -1 -1 -1 -1 -1 -1 0 1 2 2 2 3 3 3 3 3 3 3 3 2 2 2 2 2 9 14 14 9 4 6 7 8 9 10 12 13 14 14 14 15 15 14 14 14 15
-1 -1 -1 -1 -1 -2 -2 -1 -0 0 1 1 2 2 2 3 3 3 3 3 1 3 3 2 2 3 11 16 9 8 8 8 8 9 10 10 11 12 14 15 16 15 15 15 15 15 15
0 -0 -0 -1 -1 -1 -1 -1 -1 -1 0 1 1 1 2 2 2 3 3 3 2 3 1 2 2 6 12 14 10 9 8 9 9 9 11 10 10 12 13 15 14 15 17 17 16 15 16
0 0 -0 -0 -0 -1 -1 -1 -1 -1 -1 0 1 1 1 2 2 3 3 4 2 2 1 2 2 9 13 9 10 9 8 9 8 9 9 9 10 12 13 13 15 18 19 20 18 16 16
1 1 1 0 0 1 1 -0 -1 -1 -1 -0 0 1 1 1 2 2 3 3 3 4 3 3 9 11 14 7 10 9 9 10 10 10 9 8 12 15 15 17 19 19 21 21 19 17 17
2 2 2 1 1 1 1 0 0 -0 -0 -1 0 0 0 1 1 2 3 4 4 6 6 8 9 13 11 13 11 10 10 9 11 11 12 13 16 18 19 19 21 21 22 21 21 19 18
2 2 2 2 2 1 1 1 0 0 0 1 0 -0 0 1 1 2 7 10 12 12 11 12 13 12 12 10 9 11 10 10 11 13 18 15 18 20 19 18 18 19 20 21 20 18 19
3 3 2 2 2 2 2 1 1 1 1 1 1 1 0 0 1 4 8 11 11 11 15 12 12 11 11 10 13 12 10 13 14 17 16 17 20 18 16 16 17 18 20 21 19 18 19
3 3 2 2 2 1 1 2 2 1 1 1 0 1 0 1 2 7 9 10 8 9 16 13 12 12 12 11 14 14 12 14 17 17 18 18 18 16 17 18 18 20 20 20 20 18 18
4 3 3 3 2 2 2 2 1 1 1 1 1 0 0 2 6 8 10 8 8 9 17 15 14 13 12 12 15 12 12 14 16 18 17 18 17 17 18 18 18 20 18 18 19 20 23
3 3 4 4 3 3 3 2 2 2 1 1 1 0 -0 3 6 8 8 6 8 10 20 14 14 10 12 14 15 15 12 15 17 18 18 19 19 18 18 18 18 20 18 18 18 20 21
3 3 3 3 4 4 4 3 3 2 2 1 1 1 0 4 5 6 6 7 7 14 20 17 14 15 15 15 15 14 15 14 15 17 18 19 17 18 18 17 18 17 18 19 19 20 28
2 2 3 3 3 3 4 4 4 4 3 2 1 1 1 2 5 5 6 8 14 18 14 16 17 15 16 17 16 16 17 19 19 20 20 19 18 18 17 19 17 18 21 28 27 29 26
2 2 2 2 2 3 3 3 4 4 4 3 2 1 2 3 4 5 5 12 17 14 17 15 16 16 18 17 17 17 18 20 19 19 20 21 21 18 17 19 20 18 21 26 29 28 26
3 3 3 3 2 2 2 3 3 4 4 4 3 4 5 5 4 5 8 14 16 13 13 16 16 17 18 17 17 18 19 19 18 18 19 21 21 18 18 17 17 19 23 20 28 30 29
4 4 4 4 4 3 3 2 3 3 4 4 5 5 5 5 4 6 11 13 12 11 14 15 17 17 20 19 19 18 19 17 17 17 17 19 22 19 18 17 17 18 18 23 26 29 30
5 5 5 5 5 4 4 3 3 3 4 4 6 8 6 5 5 9 13 12 11 11 12 13 17 16 16 18 18 19 18 17 16 17 18 19 19 21 19 20 20 20 23 24 23 24 28
5 5 5 5 5 5 4 4 3 3 3 5 7 11 6 5 11 12 12 11 9 12 11 13 13 13 14 15 18 19 19 18 15 16 19 18 19 22 21 21 19 19 20 22 25 26 27
4 4 5 5 5 5 5 4 4 3 3 8 10 9 6 7 12 12 12 11 11 12 13 13 13 12 14 15 16 18 18 15 16 17 18 18 22 24 21 21 20 21 20 21 26 26 27
4 4 4 4 4 5 5 5 4 3 3 7 10 13 10 9 10 12 11 12 14 10 11 11 13 13 15 17 16 17 18 16 15 16 15 16 21 21 20 20 21 22 21 21 24 28 28
4 4 4 4 5 5 5 5 5 4 4 7 10 13 11 14 13 11 10 12 12 15 11 11 14 13 14 17 18 18 17 17 16 15 17 19 23 23 22 22 22 21 21 21 23 24 23
4 4 4 4 4 4 4 5 5 5 4 8 13 12 11 13 13 12 11 11 11 14 12 13 14 13 13 16 15 18 17 17 17 17 18 19 23 21 23 22 21 22 21 20 20 21 23
4 3 3 3 3 3 3 3 4 4 4 9 8 9 11 14 14 13 12 12 12 11 12 11 11 12 14 13 13 15 15 15 15 17 19 20 22 24 25 23 23 22 20 20 21 22 21
2 2 2 1 1 1 1 1 1 1 1 5 7 9 12 16 14 14 12 11 10 10 10 12 10 12 12 11 11 13 15 16 16 17 17 20 22 25 26 25 26 17 19 18 19 19 20
0 -1 -2 -2 -1 -1 -1 -2 -2 -1 -1 2 3 6 10 15 14 14 14 15 10 9 10 11 11 11 9 11 14 16 19 18 21 19 18 18 20 28 26 30 21 16 21 21 21 18 18
-2 -2 -2 -2 -2 -2 -2 -2 -2 -2 -2 1 2 2 5 11 15 13 14 13 13 11 12 13 12 9 11 12 15 18 20 20 24 24 18 19 20 24 32 28 26 17 20 19 19 20 18
-2 -2 -2 -2 -2 -2 -2 -2 -2 -2 -2 1 1 2 4 8 11 10 13 14 12 9 11 13 13 13 11 14 17 19 20 22 22 24 23 23 27 28 33 30 24 17 18 18 21 17 18
-2 -2 -2 -2 -2 -2 -2 -2 -2 -2 -2 -0 2 1 4 8 10 8 8 10 10 11 12 13 12 14 14 14 15 17 21 21 22 21 22 22 24 29 32 31 26 18 18 19 16 17 17
-2 -2 -2 -2 -2 -2 -2 -2 -2 -2 -2 -2 3 -0 1 5 7 7 6 6 8 8 11 11 13 15 12 16 18 20 19 24 22 22 19 20 19 22 22 21 16 17 16 16 16 17 17